Location: Rancho Santa Fe Post Office
(33.0184°N, 117.2026°W)
Time: 03:05:52
(UTC+00:00)

DELTA 2 R/B (1) - Pass Details

Date: 10 September 2024
Orbit: 788 x 801 km, 39.6° (Epoch: 06 October)

Event Time Altitude Azimuth Distance (km) Brightness Sun altitude
Exits shadow 12:12:24 19° 293° (WNW) 1,827 5.0 -16.7°
Maximum altitude 12:16:04 43° 356° (N) 1,108 4.4 -15.9°
Drops below altitude 10° 12:21:20 10° 67° (ENE) 2,349 7.4 -14.9°
Sets 12:23:56 0° 75° (ENE) 3,277 8.8 -14.3°
